Fremont, MI

5:10 AM EDT on September 16, 2019 (GMT -0400)
Fremont

Weather History for KFFX - July, 2019

Change the Weather History Date:

Friday, July 12, 2019

  Actual Average (KMKG) Record (KMKG)
Temperature  
Mean Temperature 64 °F -  
Max Temperature 80 °F 80 °F 92 °F (1930)
Min Temperature 48 °F 59 °F 45 °F (1978)
Degree Days  
Heating Degree Days 1    
Growing Degree Days 14 (Base 50)    
Moisture  
Dew Point 50 °F    
Average Humidity 62    
Maximum Humidity 98    
Minimum Humidity 31    
Precipitation  
Precipitation 0.00 in - - ()
Sea Level Pressure  
Sea Level Pressure 29.96 in    
Wind  
Wind Speed 3 mph (West)    
Max Wind Speed 10 mph    
Max Gust Speed -    
Visibility 10 miles    
Events      
Averages and records for this station are not official NWS values.
T = Trace of Precipitation, MM = Missing Value Source: NWS Daily Summary

Daily Weather History Graph

Daily Weather History Graph

Search for Another Location

Airport or City:

Astronomy

Jul. 12, 2019 Rise Set
Actual Time 6:14 AM EDT 9:24 PM EDT
Civil Twilight 5:39 AM EDT 9:59 PM EDT
Nautical Twilight 4:54 AM EDT 10:43 PM EDT
Astronomical Twilight 4:00 AM EDT 11:37 PM EDT
Moon 5:40 PM EDT (7/12) 3:01 AM EDT (7/12)
Length of Visible Light 16h 19m
Length of Day
15h 10m
Waxing Gibbous, 82% of the Moon is Illuminated
Jul 12
Waxing Gibbous
Jul 16
Full
Jul 24
Last Quarter
Jul 31
New
Aug 7
First Quarter

Hourly Weather History & Observations

Time (EDT) Temp. Dew Point Humidity Pressure Visibility Wind Dir Wind Speed Gust Speed Precip Events Conditions
12:17 AM 58.6 °F 50.9 °F 75% 29.95 in 10.0 mi Calm Calm - N/A   Clear
12:35 AM 56.3 °F 50.7 °F 82% 29.95 in 10.0 mi NNW 4.6 mph - N/A   Clear
12:55 AM 55.9 °F 51.3 °F 84% 29.95 in 10.0 mi North 3.5 mph - N/A   Clear
1:15 AM 56.3 °F 51.8 °F 85% 29.95 in 10.0 mi NNW 6.9 mph - N/A   Clear
1:38 AM 55.6 °F 51.4 °F 86% 29.95 in 10.0 mi NNW 5.8 mph - N/A   Clear
1:56 AM 54.7 °F 50.2 °F 85% 29.95 in 10.0 mi Calm Calm - N/A   Clear
2:15 AM 55.0 °F 50.2 °F 84% 29.95 in 10.0 mi Calm Calm - N/A   Clear
2:16 AM 55.0 °F 50.2 °F 84% 29.95 in 10.0 mi Calm Calm - N/A   Clear
2:35 AM 53.6 °F 50.2 °F 88% 29.95 in 10.0 mi Calm Calm - N/A   Clear
2:59 AM 53.1 °F 50.2 °F 90% 29.95 in 10.0 mi Calm Calm - N/A   Clear
3:17 AM 52.2 °F 50.0 °F 92% 29.94 in 10.0 mi Calm Calm - N/A   Clear
3:35 AM 51.4 °F 49.3 °F 92% 29.95 in 10.0 mi Calm Calm - N/A   Clear
3:55 AM 51.6 °F 49.6 °F 93% 29.95 in 10.0 mi Calm Calm - N/A   Clear
4:15 AM 50.5 °F 49.1 °F 95% 29.95 in 10.0 mi Calm Calm - N/A   Clear
4:20 AM 50.2 °F 49.1 °F 96% 29.95 in 10.0 mi Calm Calm - N/A   Clear
4:38 AM 50.2 °F 49.1 °F 96% 29.95 in 10.0 mi Calm Calm - N/A   Clear
4:56 AM 50.2 °F 49.1 °F 96% 29.95 in 10.0 mi Calm Calm - N/A   Clear
5:15 AM 50.7 °F 49.1 °F 94% 29.95 in 10.0 mi Calm Calm - N/A   Clear
5:35 AM 49.5 °F 48.6 °F 97% 29.96 in 10.0 mi Calm Calm - N/A   Clear
5:36 AM 49.5 °F 48.6 °F 97% 29.96 in 10.0 mi Calm Calm - N/A   Clear
5:59 AM 49.1 °F 48.4 °F 97% 29.96 in 10.0 mi Calm Calm - N/A   Clear
6:17 AM 48.9 °F 48.0 °F 97% 29.97 in 7.0 mi Calm Calm - N/A   Clear
6:35 AM 48.7 °F 48.0 °F 97% 29.98 in 10.0 mi SW 3.5 mph - N/A   Clear
6:55 AM 49.6 °F 49.1 °F 98% 29.99 in 10.0 mi Calm Calm - N/A   Clear
7:15 AM 51.8 °F 50.2 °F 94% 29.99 in 10.0 mi Calm Calm - N/A   Clear
7:20 AM 52.0 °F 50.4 °F 94% 30.00 in 10.0 mi Calm Calm - N/A   Clear
7:38 AM 54.5 °F 51.6 °F 90% 30.00 in 10.0 mi Calm Calm - N/A   Clear
7:56 AM 56.3 °F 51.1 °F 83% 30.01 in 10.0 mi Calm Calm - N/A   Clear
8:15 AM 57.7 °F 50.9 °F 78% 30.01 in 10.0 mi Calm Calm - N/A   Clear
8:16 AM 57.9 °F 51.1 °F 78% 30.01 in 10.0 mi Calm Calm - N/A   Clear
8:35 AM 59.9 °F 52.0 °F 75% 30.02 in 10.0 mi WNW 3.5 mph - N/A   Clear
8:36 AM 59.9 °F 52.0 °F 75% 30.02 in 10.0 mi WNW 3.5 mph - N/A   Clear
8:59 AM 61.0 °F 52.9 °F 75% 30.02 in 10.0 mi NW 3.5 mph - N/A   Clear
9:17 AM 62.2 °F 52.7 °F 71% 30.02 in 10.0 mi NNW 4.6 mph - N/A   Clear
9:35 AM 63.5 °F 51.1 °F 64% 30.02 in 10.0 mi NNW 3.5 mph - N/A   Clear
9:36 AM 63.5 °F 51.1 °F 64% 30.02 in 10.0 mi North 3.5 mph - N/A   Clear
9:55 AM 64.4 °F 49.6 °F 59% 30.01 in 10.0 mi NE 3.5 mph - N/A   Clear
9:56 AM 64.4 °F 49.6 °F 59% 30.01 in 10.0 mi Calm Calm - N/A   Clear
10:15 AM 65.5 °F 48.9 °F 55% 30.00 in 10.0 mi NNW 3.5 mph - N/A   Clear
10:20 AM 66.4 °F 48.7 °F 53% 30.00 in 10.0 mi NNW 5.8 mph - N/A   Clear
10:38 AM 67.5 °F 48.4 °F 50% 30.00 in 10.0 mi North 4.6 mph - N/A   Clear
10:56 AM 68.4 °F 48.9 °F 50% 30.00 in 10.0 mi Calm Calm - N/A   Clear
11:15 AM 69.8 °F 49.1 °F 48% 30.00 in 10.0 mi NNW 3.5 mph - N/A   Clear
11:35 AM 70.5 °F 48.7 °F 46% 29.99 in 10.0 mi NNE 5.8 mph - N/A   Clear
11:36 AM 70.5 °F 48.6 °F 46% 29.99 in 10.0 mi NNE 3.5 mph - N/A   Clear
11:59 AM 71.6 °F 49.6 °F 46% 29.98 in 10.0 mi WNW 3.5 mph - N/A   Clear
12:17 PM 71.8 °F 49.6 °F 45% 29.98 in 10.0 mi Calm Calm - N/A   Clear
12:35 PM 73.8 °F 49.6 °F 43% 29.98 in 10.0 mi Calm Calm - N/A   Clear
12:55 PM 74.5 °F 48.9 °F 40% 29.98 in 10.0 mi North 3.5 mph - N/A   Clear
12:56 PM 74.5 °F 48.7 °F 40% 29.98 in 10.0 mi Calm Calm - N/A   Clear
1:15 PM 75.0 °F 48.2 °F 39% 29.98 in 10.0 mi Calm Calm - N/A   Clear
1:20 PM 74.8 °F 48.2 °F 39% 29.98 in 10.0 mi Calm Calm - N/A   Clear
1:38 PM 76.5 °F 47.7 °F 36% 29.98 in 10.0 mi Calm Calm - N/A   Clear
1:55 PM 77.2 °F 47.7 °F 35% 29.97 in 10.0 mi WSW 4.6 mph - N/A   Clear
2:15 PM 79.3 °F 46.6 °F 31% 29.96 in 10.0 mi Calm Calm - N/A   Clear
2:35 PM 79.0 °F 46.6 °F 32% 29.95 in 10.0 mi WNW 4.6 mph - N/A   Clear
2:59 PM 79.7 °F 47.3 °F 32% 29.95 in 10.0 mi WSW 4.6 mph - N/A   Clear
3:17 PM 80.1 °F 50.5 °F 36% 29.94 in 10.0 mi West 6.9 mph - N/A   Clear
3:35 PM 80.2 °F 52.5 °F 38% 29.95 in 10.0 mi West 8.1 mph - N/A   Clear
3:36 PM 80.4 °F 52.9 °F 38% 29.95 in 10.0 mi West 9.2 mph - N/A   Clear
3:55 PM 79.5 °F 52.2 °F 38% 29.94 in 10.0 mi WSW 8.1 mph - N/A   Clear
3:56 PM 79.7 °F 52.3 °F 39% 29.94 in 10.0 mi West 9.2 mph - N/A   Clear
4:15 PM 79.3 °F 51.6 °F 38% 29.94 in 10.0 mi SW 8.1 mph - N/A   Clear
4:38 PM 79.0 °F 50.9 °F 37% 29.95 in 10.0 mi WSW 5.8 mph - N/A   Clear
4:56 PM 79.0 °F 50.7 °F 37% 29.94 in 10.0 mi West 9.2 mph - N/A   Clear
5:15 PM 78.3 °F 50.7 °F 38% 29.94 in 10.0 mi West 6.9 mph - N/A   Clear
5:16 PM 78.3 °F 50.7 °F 38% 29.95 in 10.0 mi West 6.9 mph - N/A   Clear
5:35 PM 78.1 °F 50.0 °F 37% 29.94 in 10.0 mi SW 10.4 mph - N/A   Clear
5:36 PM 78.1 °F 50.0 °F 37% 29.94 in 10.0 mi SW 9.2 mph - N/A   Clear
5:59 PM 77.4 °F 48.9 °F 37% 29.94 in 10.0 mi WSW 10.4 mph - N/A   Clear
6:17 PM 77.2 °F 49.8 °F 38% 29.94 in 10.0 mi SW 10.4 mph - N/A   Clear
6:35 PM 76.8 °F 49.6 °F 38% 29.94 in 10.0 mi WSW 6.9 mph - N/A   Clear
6:55 PM 76.3 °F 49.6 °F 39% 29.93 in 10.0 mi SW 9.2 mph - N/A   Clear
6:56 PM 76.3 °F 49.3 °F 39% 29.93 in 10.0 mi SW 9.2 mph - N/A   Clear
7:15 PM 75.6 °F 49.5 °F 40% 29.93 in 10.0 mi SW 8.1 mph - N/A   Clear
7:20 PM 75.6 °F 49.3 °F 39% 29.93 in 10.0 mi South 8.1 mph - N/A   Clear
7:38 PM 74.8 °F 49.8 °F 41% 29.93 in 10.0 mi SW 4.6 mph - N/A   Clear
7:56 PM 74.7 °F 50.4 °F 42% 29.94 in 10.0 mi SW 5.8 mph - N/A   Clear
8:15 PM 73.9 °F 51.6 °F 45% 29.93 in 10.0 mi SW 5.8 mph - N/A   Clear
8:16 PM 73.9 °F 51.6 °F 45% 29.94 in 10.0 mi SW 5.8 mph - N/A   Clear
8:35 PM 72.1 °F 51.8 °F 49% 29.92 in 10.0 mi South 4.6 mph - N/A   Clear
8:36 PM 72.1 °F 51.8 °F 49% 29.92 in 10.0 mi South 3.5 mph - N/A   Clear
8:58 PM 70.2 °F 52.2 °F 53% 29.92 in 10.0 mi South 3.5 mph - N/A   Clear
9:17 PM 68.9 °F 52.7 °F 56% 29.91 in 10.0 mi Calm Calm - N/A   Clear
9:35 PM 67.8 °F 53.6 °F 60% 29.90 in 10.0 mi South 3.5 mph - N/A   Clear
9:55 PM 67.3 °F 53.6 °F 61% 29.90 in 10.0 mi South 4.6 mph - N/A   Clear
9:56 PM 67.3 °F 53.6 °F 61% 29.90 in 10.0 mi South 4.6 mph - N/A   Clear
10:15 PM 67.1 °F 53.8 °F 62% 29.92 in 10.0 mi Calm Calm - N/A   Clear
10:20 PM 66.7 °F 53.6 °F 63% 29.92 in 10.0 mi South 3.5 mph - N/A   Clear
10:38 PM 65.5 °F 54.0 °F 66% 29.93 in 10.0 mi Calm Calm - N/A   Clear
10:56 PM 64.4 °F 54.5 °F 70% 29.93 in 10.0 mi Calm Calm - N/A   Clear
11:15 PM 63.3 °F 54.7 °F 73% 29.93 in 10.0 mi Calm Calm - N/A   Clear
11:35 PM 62.4 °F 54.5 °F 75% 29.92 in 10.0 mi Calm Calm - N/A   Clear
11:36 PM 62.6 °F 54.3 °F 74% 29.92 in 10.0 mi Calm Calm - N/A   Clear
11:59 PM 62.4 °F 54.9 °F 76% 29.92 in 10.0 mi Calm Calm - N/A   Clear